Strona główna
METAR-TAF:

METAR-TAF

Lotnisko :

Wings Field

Filadelfia / Blue Bell, Pensylwania, Stany Zjednoczone

Szerokość geograficzna: 40-08-15N, Długość geograficzna: 075-15-54W, wysokość: 92 m

Aktualna obserwacja pogody

Raport powstał 28 minut temu, godzina 21:55 UTC
Wiatr 3 kt od północ
Temperatura 3°C
Wilgotność 100%
Ciśnienie 1011 hPa
Widzialność: 11.3 km
Rozproszone chmury na wysokości 1400 ft

METAR: KLOM 162155Z AUTO 36003KT 7SM SCT014 03/03 A2984 RMK AO1

czas: 17:23 (22:23 UTC)


TAF: brakujący

Obserwacja i prognoza pogody dla ponad 4000 lotnisk (raport METAR i TAF).

Dostępne stacje oznaczono żółtymi i czerwonymi punktami na mapie.

Najedź kursorem aby zobaczyć nazwę stacji.

Kliknij aby zobaczyć obserwacje i prognozy pogody.

Aby zmienić mapę: kliknij na zielony przycisk z czarnym krzyżykiem, aby powiększyć; na zielony przycisk z myślnikiem, aby pomniejszyć; na zielone strzałki, aby przejść do map sąsiednich.


METAR-TAF: